Home   Weather   Apolda   Past weeks

Flag for Germany Past Weather in Apolda, Thuringia, Germany — Yesterday and Last 2 Weeks

48 °F

Passing clouds.

Feels Like: 45 °F
Forecast: 45 / 49 °F
Wind: 7 mph from Northwest

Location: Erfurt-Bindersleben

Current Time: Oct 25, 2016 at 9:10:16 PM

Latest Report: Oct 25, 2016 at 8:20 PM

Visibility: N/A

Pressure: 30.27 "Hg

Humidity: 100%

Dew Point: 48 °F

Location of ApoldaLocation

Past Weather in Apolda — Graph


Apolda Temperature Yesterday

Maximum temperature yesterday: 46 °F (at 1:20 PM)
Minimum temperature yesterday: 41 °F (at 12:20 AM)
Average temperature yesterday: 43 °F

High & Low Weather Summary for the Past Weeks

High63 °F (Oct 16, 1:20 PM)100% (Oct 11, 12:50 AM)30.24 "Hg (Oct 11, 12:50 AM)
Low36 °F (Oct 23, 12:20 AM)64% (Oct 16, 1:20 PM)29.74 "Hg (Oct 15, 1:20 AM)
Average46 °F92%30.01 "Hg
* Reported Oct 10 7:20 PM — Oct 25 7:50 PM, Apolda, Weather by CustomWeather, © 2016

Note: Actual official high and low records may vary slightly from our data, if they occured in-between our weather recording intervals... More about our weather records


Apolda Weather History for the Previous 24 Hours

Scroll right to see more
Time TempWeatherWind HumidityBarometerVisibility
7:50 PM
Tue, Oct 25
50 °FPassing clouds.6 mph94%30.24 "HgN/A
7:20 PM50 °FPartly cloudy.6 mph94%30.24 "HgN/A
6:50 PM50 °FPassing clouds.3 mph94%30.21 "HgN/A
6:20 PM50 °FPassing clouds.3 mph94%30.21 "HgN/A
5:50 PM50 °FPartly sunny.No wind94%30.21 "HgN/A
5:20 PM50 °FPartly sunny.1 mph94%30.18 "HgN/A
4:50 PM50 °FPartly sunny.5 mph100%30.21 "HgN/A
4:20 PM50 °FDrizzle. Partly sunny.9 mph100%30.18 "Hg2 mi
3:50 PM50 °FDrizzle. Partly sunny.6 mph100%30.18 "Hg4 mi
3:20 PM50 °FBroken clouds.7 mph100%30.18 "Hg6 mi
2:50 PM52 °FDrizzle. Partly sunny.7 mph94%30.18 "Hg4 mi
2:20 PM52 °FDrizzle. Partly sunny.6 mph94%30.18 "Hg4 mi
1:50 PM52 °FDrizzle. Partly sunny.8 mph100%30.15 "Hg2 mi
1:20 PM54 °FPartly sunny.3 mph88%30.15 "HgN/A
12:50 PM52 °FPartly sunny.3 mph94%30.15 "HgN/A
12:20 PM52 °FPartly sunny.6 mph94%30.15 "HgN/A
11:50 AM52 °FBroken clouds.6 mph94%30.15 "HgN/A
11:20 AM48 °FPartly sunny.8 mph100%30.15 "HgN/A
10:50 AM48 °FPartly sunny.7 mph100%30.12 "HgN/A
10:20 AM48 °FPartly sunny.7 mph94%30.12 "HgN/A
9:50 AM46 °FPartly sunny.7 mph100%30.12 "HgN/A
9:20 AM46 °FPartly sunny.6 mph100%30.12 "HgN/A
8:50 AM46 °FLight rain. Partly sunny.6 mph100%30.09 "Hg4 mi
8:20 AM45 °FLight rain. Fog.5 mph100%30.09 "Hg2 mi
7:50 AM45 °FFog.3 mph100%30.07 "Hg2 mi
7:20 AM45 °FMixture of precip. Fog.1 mph100%30.07 "Hg4 mi
6:50 AM45 °FDrizzle. Fog.1 mph100%30.04 "Hg2 mi
6:20 AM45 °FDrizzle. Fog.2 mph100%30.04 "Hg2 mi
5:50 AM45 °FDrizzle. Fog.3 mph100%30.04 "Hg1 mi
5:20 AM45 °FDrizzle. Fog.1 mph100%30.01 "Hg1 mi
4:50 AM45 °FDrizzle. Fog.2 mph100%30.01 "Hg1 mi
4:20 AM45 °FDrizzle. Fog.1 mph100%30.01 "Hg0 mi
3:50 AM45 °FDrizzle. Fog.No wind100%30.01 "Hg0 mi
3:20 AM45 °FDrizzle. Fog.2 mph100%29.98 "Hg0 mi
2:50 AM45 °FDrizzle. Fog.2 mph100%29.98 "Hg0 mi
2:20 AM45 °FDrizzle. Fog.2 mph100%29.98 "Hg0 mi
1:50 AM45 °FDrizzle. Fog.2 mph100%29.98 "Hg0 mi
1:20 AM45 °FDrizzle. Fog.6 mph100%29.98 "Hg0 mi
12:50 AM45 °FDrizzle. Fog.7 mph100%29.98 "Hg0 mi
12:20 AM45 °FDrizzle. Fog.7 mph100%29.98 "Hg0 mi
11:50 PM
Mon, Oct 24
45 °FDrizzle. Fog.5 mph100%29.98 "Hg0 mi
11:20 PM45 °FDrizzle. Fog.3 mph100%29.98 "Hg0 mi
10:50 PM45 °FDrizzle. Fog.3 mph100%29.98 "Hg0 mi
10:20 PM45 °FDrizzle. Fog.3 mph100%29.98 "Hg0 mi
9:50 PM45 °FDrizzle. Fog.5 mph100%29.95 "Hg0 mi
9:20 PM45 °FDrizzle. Fog.6 mph100%29.98 "Hg0 mi
Weather by CustomWeather, © 2016

See weather overviewHow to use our weather pages